When you browse on this site, cookies collect data to enhance your experience and personalize the content and advertising you see.
Visit our Privacy Policy to learn more. By continuing to use the site, you agree to this use of cookies and data.
  • In Austria
  • List of Countries
  • For 7 days
  • Water Temperature
  • Weather Map
  • News
  • Weather Widgets
  • user-avatar
    Login

    Hourly Weather Mihaylenki

    Today, 7 June, Sunday

    Time Temperature Precipitation Wind Pressure Humidity
    00:00 +14°C° 0 mm 1 mps 745 mmHg 94%
    01:00 +13°C° 0 mm 1 mps 745 mmHg 94%
    02:00 +13°C° 0 mm 1 mps 746 mmHg 95%
    03:00 +13°C° 0 mm 0 mps 746 mmHg 94%
    04:00 +13°C° 0 mm 0 mps 746 mmHg 93%
    05:00 +14°C° 0 mm 0 mps 747 mmHg 92%
    06:00 +16°C° 0 mm 0 mps 747 mmHg 86%
    07:00 +20°C° 0 mm 1 mps 747 mmHg 80%
    08:00 +22°C° 0 mm 1 mps 748 mmHg 74%
    09:00 +23°C° 0 mm 1 mps 748 mmHg 66%
    10:00 +25°C° 0 mm 2 mps 748 mmHg 58%
    11:00 +26°C° 0 mm 2 mps 748 mmHg 50%
    12:00 +27°C° 0 mm 2 mps 748 mmHg 49%
    13:00 +27°C° 0 mm 2 mps 748 mmHg 47%
    14:00 +28°C° 0 mm 2 mps 748 mmHg 46%
    15:00 +27°C° 0 mm 2 mps 748 mmHg 50%
    16:00 +27°C° 0 mm 2 mps 747 mmHg 54%
    17:00 +27°C° 0 mm 3 mps 747 mmHg 58%
    18:00 +25°C° 0 mm 2 mps 747 mmHg 66%
    19:00 +23°C° 0 mm 2 mps 747 mmHg 74%
    20:00 +20°C° 0 mm 2 mps 747 mmHg 82%
    21:00 +20°C° 0 mm 2 mps 747 mmHg 84%
    22:00 +19°C° 0 mm 2 mps 747 mmHg 86%
    23:00 +18°C° 0 mm 2 mps 747 mmHg 88%

    Tomorrow, 8 June, Monday

    Time Temperature Precipitation Wind Pressure Humidity
    00:00 +18°C° 0 mm 2 mps 747 mmHg 88%
    01:00 +18°C° 0 mm 2 mps 747 mmHg 88%
    02:00 +18°C° 0 mm 2 mps 747 mmHg 89%
    03:00 +18°C° 0 mm 2 mps 747 mmHg 89%
    04:00 +18°C° 0 mm 2 mps 747 mmHg 90%
    05:00 +18°C° 0 mm 2 mps 746 mmHg 91%
    06:00 +20°C° 0 mm 2 mps 747 mmHg 86%
    07:00 +23°C° 0 mm 2 mps 747 mmHg 80%
    08:00 +24°C° 0 mm 2 mps 747 mmHg 75%
    09:00 +26°C° 0 mm 3 mps 747 mmHg 68%
    10:00 +27°C° 0 mm 3 mps 747 mmHg 62%
    11:00 +28°C° 0 mm 4 mps 747 mmHg 56%
    12:00 +29°C° 0 mm 4 mps 747 mmHg 54%
    13:00 +29°C° 0 mm 4 mps 747 mmHg 52%
    14:00 +29°C° 0 mm 4 mps 747 mmHg 50%
    15:00 +29°C° 0 mm 4 mps 747 mmHg 53%
    16:00 +29°C° 0 mm 3 mps 746 mmHg 56%
    17:00 +28°C° 0 mm 3 mps 746 mmHg 59%
    18:00 +26°C° 0 mm 3 mps 746 mmHg 68%
    19:00 +25°C° 0 mm 2 mps 746 mmHg 77%
    20:00 +23°C° 0 mm 2 mps 746 mmHg 86%
    21:00 +21°C° 0 mm 2 mps 746 mmHg 89%
    22:00 +20°C° 0 mm 2 mps 747 mmHg 92%
    23:00 +20°C° 0 mm 1 mps 747 mmHg 95%

    Day after tomorrow, 9 June, Tuesday

    Time Temperature Precipitation Wind Pressure Humidity
    00:00 +19°C° 0 mm 1 mps 747 mmHg 95%
    01:00 +19°C° 0 mm 1 mps 747 mmHg 96%
    02:00 +19°C° 0 mm 1 mps 747 mmHg 96%
    03:00 +19°C° 0 mm 1 mps 747 mmHg 95%
    04:00 +19°C° 0 mm 1 mps 747 mmHg 94%
    05:00 +20°C° 0 mm 1 mps 747 mmHg 93%
    06:00 +21°C° 0 mm 2 mps 747 mmHg 87%
    07:00 +23°C° 0 mm 2 mps 748 mmHg 80%
    08:00 +25°C° 0 mm 2 mps 748 mmHg 73%
    09:00 +26°C° 0 mm 2 mps 748 mmHg 67%
    10:00 +28°C° 0 mm 3 mps 748 mmHg 61%
    11:00 +29°C° 0 mm 3 mps 748 mmHg 55%
    12:00 +29°C° 0.1 mm 3 mps 748 mmHg 54%
    13:00 +29°C° 0.1 mm 3 mps 748 mmHg 54%
    14:00 +30°C° 0.1 mm 3 mps 748 mmHg 53%
    15:00 +29°C° 0 mm 3 mps 748 mmHg 54%
    16:00 +29°C° 0 mm 2 mps 748 mmHg 55%
    17:00 +29°C° 0 mm 2 mps 747 mmHg 56%
    18:00 +27°C° 0 mm 2 mps 748 mmHg 64%
    19:00 +25°C° 0 mm 1 mps 748 mmHg 73%
    20:00 +23°C° 0 mm 1 mps 748 mmHg 81%
    21:00 +22°C° 0 mm 1 mps 748 mmHg 83%
    22:00 +21°C° 0 mm 1 mps 748 mmHg 86%
    23:00 +20°C° 0 mm 1 mps 748 mmHg 88%

    10 June, Wednesday

    Time Temperature Precipitation Wind Pressure Humidity
    00:00 +20°C° 0 mm 1 mps 748 mmHg 90%
    01:00 +19°C° 0 mm 1 mps 748 mmHg 92%
    02:00 +19°C° 0 mm 1 mps 748 mmHg 94%
    03:00 +19°C° 0 mm 1 mps 748 mmHg 93%
    04:00 +20°C° 0 mm 1 mps 748 mmHg 92%
    05:00 +20°C° 0 mm 1 mps 748 mmHg 91%
    06:00 +22°C° 0 mm 1 mps 748 mmHg 83%
    07:00 +24°C° 0 mm 1 mps 748 mmHg 76%
    08:00 +26°C° 0 mm 1 mps 748 mmHg 68%
    09:00 +28°C° 0 mm 2 mps 748 mmHg 62%
    10:00 +29°C° 0 mm 2 mps 748 mmHg 57%
    11:00 +30°C° 0 mm 2 mps 748 mmHg 51%
    12:00 +30°C° 0 mm 3 mps 748 mmHg 49%
    13:00 +31°C° 0 mm 3 mps 748 mmHg 47%
    14:00 +31°C° 0 mm 3 mps 747 mmHg 45%
    15:00 +31°C° 0 mm 3 mps 747 mmHg 48%
    16:00 +30°C° 0 mm 2 mps 747 mmHg 51%
    17:00 +30°C° 0 mm 2 mps 747 mmHg 54%
    18:00 +28°C° 0 mm 2 mps 747 mmHg 63%
    19:00 +26°C° 0 mm 2 mps 747 mmHg 73%
    20:00 +24°C° 0 mm 1 mps 747 mmHg 82%
    21:00 +23°C° 0 mm 1 mps 747 mmHg 84%
    22:00 +22°C° 0 mm 1 mps 747 mmHg 87%
    23:00 +20°C° 0 mm 2 mps 747 mmHg 89%

    11 June, Thursday

    Time Temperature Precipitation Wind Pressure Humidity
    00:00 +20°C° 0 mm 2 mps 747 mmHg 91%
    01:00 +19°C° 0 mm 2 mps 747 mmHg 92%
    02:00 +19°C° 0 mm 2 mps 747 mmHg 94%
    03:00 +19°C° 0 mm 2 mps 747 mmHg 93%
    04:00 +21°C° 0 mm 1 mps 747 mmHg 92%
    05:00 +21°C° 0 mm 1 mps 747 mmHg 91%
    06:00 +23°C° 0 mm 2 mps 747 mmHg 84%
    07:00 +25°C° 0 mm 2 mps 747 mmHg 77%
    08:00 +27°C° 0 mm 2 mps 747 mmHg 70%
    09:00 +28°C° 0 mm 2 mps 747 mmHg 64%
    10:00 +29°C° 0 mm 2 mps 747 mmHg 59%
    11:00 +30°C° 0 mm 3 mps 747 mmHg 53%
    12:00 +31°C° 0.1 mm 3 mps 747 mmHg 52%
    13:00 +31°C° 0.1 mm 3 mps 747 mmHg 51%
    14:00 +31°C° 0.1 mm 3 mps 747 mmHg 50%
    15:00 +31°C° 0 mm 2 mps 747 mmHg 52%
    16:00 +31°C° 0 mm 2 mps 746 mmHg 53%
    17:00 +30°C° 0 mm 2 mps 746 mmHg 55%
    18:00 +28°C° 0 mm 1 mps 746 mmHg 64%
    19:00 +27°C° 0 mm 1 mps 746 mmHg 72%
    20:00 +25°C° 0 mm 1 mps 746 mmHg 81%
    21:00 +24°C° 0.5 mm 1 mps 746 mmHg 84%
    22:00 +23°C° 0.5 mm 1 mps 746 mmHg 88%
    23:00 +22°C° 0.5 mm 1 mps 746 mmHg 91%

    12 June, Friday

    Time Temperature Precipitation Wind Pressure Humidity
    00:00 +22°C° 0.3 mm 1 mps 746 mmHg 92%
    01:00 +21°C° 0.3 mm 1 mps 746 mmHg 94%
    02:00 +21°C° 0.3 mm 1 mps 746 mmHg 95%
    03:00 +21°C° 0 mm 1 mps 746 mmHg 95%
    04:00 +21°C° 0 mm 1 mps 746 mmHg 95%
    05:00 +22°C° 0 mm 1 mps 746 mmHg 95%
    06:00 +23°C° 0 mm 1 mps 746 mmHg 89%
    07:00 +25°C° 0 mm 1 mps 746 mmHg 83%
    08:00 +27°C° 0 mm 1 mps 746 mmHg 77%
    09:00 +28°C° 0.4 mm 1 mps 746 mmHg 70%
    10:00 +29°C° 0.4 mm 1 mps 746 mmHg 63%
    11:00 +31°C° 0.4 mm 1 mps 746 mmHg 57%
    12:00 +31°C° 0.5 mm 1 mps 746 mmHg 55%
    13:00 +31°C° 0.5 mm 1 mps 746 mmHg 53%
    14:00 +31°C° 0.5 mm 1 mps 745 mmHg 51%
    15:00 +30°C° 0.2 mm 1 mps 745 mmHg 54%
    16:00 +30°C° 0.2 mm 1 mps 745 mmHg 57%
    17:00 +30°C° 0.2 mm 1 mps 745 mmHg 60%
    18:00 +27°C° 0.2 mm 1 mps 745 mmHg 69%
    19:00 +25°C° 0.2 mm 2 mps 745 mmHg 78%
    20:00 +23°C° 0.2 mm 2 mps 745 mmHg 88%
    21:00 +21°C° 0.2 mm 2 mps 745 mmHg 90%
    22:00 +21°C° 0.2 mm 2 mps 745 mmHg 93%
    23:00 +20°C° 0.2 mm 2 mps 745 mmHg 96%
    Show more